Overview Statistics Trail Chart Weather Telemetry Raw packets
 

This is the latest recevied weather packets stored in our database for station/object KE6YLF. If no packets are shown the sender has not sent any weather packets the latest 10 day(s).

<< 9 10 11 12 13 14 15 >>
Time Temp. Humidity Pressure Rain* Wind** Luminosity Snow
1788624630 32.78° C 36% 1078.5 hPa 0 mm - - -
1788624328 32.78° C 36% 1078.2 hPa 0 mm - - -
1788624023 33.33° C 36% 1078.5 hPa 0 mm - - -
1788623723 31.67° C 37% 1078.3 hPa 0 mm - - -
1788623421 32.22° C 37% 1078.4 hPa 0 mm - - -
1788623117 32.22° C 37% 1078.2 hPa 0 mm - - -
1788622812 31.67° C 38% 1078.2 hPa 0 mm - - -
1788622508 31.67° C 38% 1078.3 hPa 0 mm - - -
1788622208 32.22° C 38% 1077.9 hPa 0 mm - - -
1788621908 31.67° C 38% 1078 hPa 0 mm - - -
1788621603 31.67° C 39% 1078.1 hPa 0 mm - - -
1788621298 31.67° C 39% 1078.1 hPa 0 mm - - -
1788620993 31.11° C 40% 1077.9 hPa 0 mm - - -
1788620711 31.11° C 40% 1077.9 hPa 0 mm - - -
1788620385 31.11° C 40% 1077.9 hPa 0 mm - - -
1788620080 31.67° C 39% 1078 hPa 0 mm - - -
1788619778 30.56° C 41% 1078 hPa 0 mm - - -
1788619474 30.56° C 41% 1077.8 hPa 0 mm - - -
1788619172 30.56° C 41% 1077.9 hPa 0 mm - - -
1788618866 30° C 42% 1077.8 hPa 0 mm - - -
1788618561 30° C 41% 1078 hPa 0 mm - - -
1788618260 30° C 42% 1077.9 hPa 0 mm - - -
1788617956 29.44° C 43% 1077.9 hPa 0 mm - - -
1788617651 29.44° C 43% 1077.8 hPa 0 mm - - -
1788617347 28.89° C 45% 1077.7 hPa 0 mm - - -

* Rain latest hour (hover to see other rain measurements)
** Current wind speed in m/s (hover to see current wind gust speed)